Regional Weather Roundup
Issued by NWS

Home | Current Version | Previous Version | Graphics & Text | Print | Product List | Glossary On
Versions: 1 2 3 4 5 6 7 8 9 10 11 12 13 14 15 16 17 18 19 20 21 22 23 24 25 26 27 28
000
ASUS45 KSLC 260110
RWRUT

UTAH REGIONAL WEATHER ROUNDUP
NATIONAL WEATHER SERVICE SALT LAKE CITY UT
700 PM MDT FRI MAY 25 2018

UTZ001>011-023>025-260200-

NORTHERN UTAH

CITY           SKY/WX    TMP DP  RH WIND       PRES   REMARKS
BRIGHAM CITY   SUNNY     85  24  10 SW9       29.82F
HILL AFB         N/A     83  30  15 SW6       29.85F
LOGAN          SUNNY     82  45  27 N3        29.82F
OGDEN            N/A     84  30  14 W6        29.82F
SALT LAKE CITY   N/A     88  28  11 SW6       29.79F
TOOELE VALLEY  SUNNY     86  32  14 S12       29.81F
WENDOVER       MOSUNNY   86  28  12 S18       29.77F
HEBER CITY       N/A     79  30  17 SW10      29.87F
WEST JORDAN      N/A     85  40  20 S8        29.83F

$$

UTZ011>015-024>027-260200-

CENTRAL/NORTHEAST UTAH

CITY           SKY/WX    TMP DP  RH WIND       PRES   REMARKS
PROVO AIRPORT  SUNNY     85  31  14 CALM      29.84F
MOAB/CANYONLAN SUNNY     88   6   4 SW18G25   29.87F
DELTA          SUNNY     82  23  11 SW18G29   29.86F
PRICE          SUNNY     82  11   7 S15       29.96F
ROOSEVELT      SUNNY     86  21   9 SW10      29.92F
VERNAL         SUNNY     85  13   7 SW17      29.91F

$$

UTZ013>016-019>022-027-260200-

SOUTHERN UTAH

CITY           SKY/WX    TMP DP  RH WIND       PRES   REMARKS
BRYCE CANYON   SUNNY     72  14  11 S17G26    30.11F
CEDAR CITY       N/A     77  21  12 SW21G33   29.94S
MILFORD        SUNNY     81  23  11 SW22G36   29.87F
ST GEORGE      CLEAR     88  23   9 W17       29.81F
HANKSVILLE     SUNNY     88  14   6 S15G22    29.90F
BLANDING         N/A     83  13   7 S14       30.10F

$$

REGIONAL REPORTS     COLORADO/ARIZONA

CITY           SKY/WX    TMP DP  RH WIND       PRES   REMARKS
CRAIG, CO        N/A     80  31  16 SW10      30.01F
GRAND JUNCTION SUNNY     88  16   7 VRB3      29.91F
RIFLE, CO      SUNNY     86   0   4 W18G26    29.96S
MONTROSE, CO   SUNNY     85   3   4 W13       29.99F
CORTEZ, CO     SUNNY     84  17   8 SW9       30.05F
COLORADO CITY    N/A     84  18   8 SW17G24   29.97F
PAGE, AZ       SUNNY     90  12   5 S14       29.87F
GRAND CANYON   SUNNY     75   9   8 SW16G24   30.11F
KINGMAN, AZ    SUNNY     84  22  10 SW26G32   29.91F
FLAGSTAFF, AZ  SUNNY     70   8   9 SW18G26   30.16F

$$

REGIONAL REPORTS    NEVADA/IDAHO/WYOMING

CITY           SKY/WX    TMP DP  RH WIND       PRES   REMARKS
LAS VEGAS, NV  SUNNY     86  26  11 SW17G26   29.79F
ELY, NY        MOSUNNY   71  21  15 S21G33    29.94F
ELKO, NV       PTSUNNY   77  28  16 S20G30    29.82F
POCATELLO, ID  SUNNY     83  37  19 S13       29.82F
BURLEY, ID     SUNNY     85  31  14 SE7G16    29.77F
FORT BRIDGER,    N/A     80  21  11 SE10      30.04F
EVANSTON, WY   SUNNY     75  34  22 W6        30.01F
ROCK SPRINGS,  SUNNY     77  19  11 SW13      30.02F

$$




USA.gov is the U.S. government's official web portal to all federal, state and local government web resources and services.